Location: Warszawa
(52.2500°N, 21.0000°E)
Time: 19:24:25
(UTC+02:00)

A-11 Canister half - Pass Details

Date: 12 February 2023
Orbit: 1526 x 1682 km, 47.3° (Epoch: 27 March)

Event Time Altitude Azimuth Distance (km) Brightness Sun altitude
Exits shadow 02:49:45 35° 149° (SSE) 2,279 9.8 -37.6°
Maximum altitude 02:50:09 35° 144° (SE) 2,275 9.8 -37.5°
Drops below altitude 10° 02:58:14 10° 83° (E) 3,705 11.7 -36.5°
Sets 03:01:36 0° 75° (ENE) 4,699 12.5 -36.0°
